SCP
-0 0 0 0 0 -0 -0 -0 -0 -0 -0 -0 -0 -0 -0 -0 -0 -0 -0 -0 0 -0 -0 -0 -0 -0 -0 0 0 0 -0 -0 -0 -0 -0 -0 -0 -0 0 -0 -0 -0 -0
-0 0 0 0 -0 -0 -0 -0 -0 -0 -0 -0 -0 -0 -0 -0 -0 -0 -0 -0 0 -0 -0 -0 -0 -0 -0 0 -0 0 -0 -0 -0 -0 -0 -0 -0 -0 -0 -0 -0 -0 -0
0 -0 -0 0 0 -0 -0 -0 -0 -0 -0 -0 -0 -0 -0 -0 -0 -0 -0 -0 -0 -0 -0 -0 0 0 0 0 0 0 0 0 0 -0 -0 0 0 -0 -0 -0 -0 -0 -0
0 0 0 0 0 -0 -0 -0 -0 -0 -0 0 0 0 -0 -0 -0 -0 -0 -0 -0 -0 0 0 0 0 0 0 0 0 0 0 -0 -0 -0 0 0 -0 -0 -0 -0 -0 -0
0 0 0 0 0 -0 -0 -0 -0 -0 -0 0 -0 -0 -0 -0 -0 -0 0 0 -0 -0 0 0 0 0 0 0 0 0 -0 -0 -0 0 -0 -0 0 -0 -0 -0 -0 -0 -0
-0 -0 0 -0 -0 -0 -0 -0 -0 -0 -0 -0 -0 -0 -0 -0 -0 -0 -0 0 0 0 0 0 0 0 0 0 -0 0 -0 -0 -0 0 0 -0 -0 -0 -0 -0 0 -0 -0
-0 -0 0 0 -0 -0 -0 -0 -0 -0 -0 -0 -0 -0 -0 -0 -0 -0 -0 -0 0 0 0 0 0 0 0 0 -0 -0 -0 -0 -0 -0 -0 -0 -0 -0 -0 -0 -0 -0 -0
-0 -0 0 -0 -0 -0 -0 -0 -0 -0 -0 -0 -1 -1 -0 -0 -0 -0 -0 -0 -0 0 0 0 0 0 0 0 -0 -0 -0 -0 -0 0 0 0 -0 -0 -0 -0 -0 -0 -0
-0 -0 -0 -0 -0 -0 -0 -0 -0 -0 -0 -1 -0 -0 -0 -0 -0 -0 -0 -0 -0 -0 0 0 0 0 -0 -0 -0 -0 -0 -0 -0 0 -0 0 -0 -0 -0 -0 -0 -0 0
-0 -0 -0 -0 -0 -0 -0 -0 -0 -0 -0 -0 -0 -0 0 -0 -0 -0 -0 -0 -0 -0 -0 0 0 -0 -0 -0 -0 -0 -0 -0 -0 -0 -0 -0 -0 -0 -0 -0 -0 -0 -0
-0 -0 -0 -0 -0 -0 -0 -0 -0 -0 -0 -0 -0 -0 0 0 0 0 -0 -0 -0 -0 0 0 0 -0 -0 -0 -0 -0 -0 -0 -0 -0 -0 0 -0 -0 -0 -0 -0 -0 -0
0 -0 -0 -0 -0 -0 -0 -0 -0 -0 -0 0 0 -0 0 0 0 0 -0 0 -0 0 0 0 -0 -0 -0 -0 -0 -0 0 0 0 -0 0 -0 -0 -0 -0 -0 -0 -0 -0
0 -0 -0 -0 -0 -0 -0 -0 -0 -0 -0 -0 0 0 0 -0 0 -0 -0 0 -0 -0 -0 0 0 -0 -0 0 0 0 0 0 -0 -0 -0 -0 -0 -0 -0 -0 0 -0 -0
-0 -0 -0 -0 -0 -0 0 0 0 -0 0 0 0 -0 -0 -0 -0 -0 -0 0 0 -0 0 0 0 0 -0 0 -0 -0 -0 -0 0 0 -0 -0 -0 -0 -0 -0 0 0 -0
-0 -0 -0 -0 -0 -0 0 0 0 0 -0 0 0 -0 -0 -0 0 0 0 0 -0 -0 0 0 0 0 -0 0 -0 -0 -0 -0 -0 0 -0 -0 -0 -1 -1 -0 -0 0 -0
0 -0 0 -0 -0 -0 0 0 0 -0 0 0 0 -0 -0 -0 0 0 0 -0 -0 0 -0 -0 0 0 -0 -0 0 0 0 -0 -0 -0 0 0 -1 -0 -1 -0 -0 -0 -0
0 0 0 0 0 0 0 0 0 -0 -0 -0 -0 -0 -0 -0 0 -0 0 -0 -0 -0 -0 -0 -0 -0 -0 -0 -0 -0 -0 0 -0 -0 -0 0 -0 -0 -0 -0 -0 -0 -0
0 0 0 0 0 0 0 0 0 0 0 -0 -0 -0 -0 -0 -0 0 0 0 -0 -0 -0 -0 0 -0 -0 -0 -0 -0 -0 -0 0 -0 -0 -0 0 0 -0 -0 -0 -0 -0
0 0 0 0 0 0 1 0 0 0 0 0 0 -0 -0 0 -0 0 0 0 0 0 0 0 -0 0 -0 -0 0 -0 -0 -0 -0 -0 -0 -0 -0 -0 0 -0 -1 -1 -1
0 0 0 0 0 0 1 1 0 0 0 0 0 0 0 0 0 0 0 0 0 0 0 0 0 -0 -0 -0 -0 -0 -0 -0 -0 -0 0 0 0 -0 -0 -0 -0 -0 -0
0 0 0 0 0 0 1 1 0 0 0 0 0 0 0 0 0 0 0 0 0 0 0 -0 0 0 -0 0 -0 -0 -0 -0 -0 -0 0 0 0 -0 -0 -0 0 0 -0
0 -0 0 0 0 0 1 1 1 1 0 0 0 0 0 0 0 0 0 0 0 0 0 0 0 0 0 0 -0 0 -0 -0 -0 -0 0 0 0 0 0 -0 -0 -0 -0
-0 0 0 0 -0 0 1 1 1 1 1 0 0 0 0 0 0 0 0 0 0 0 0 0 0 0 0 0 0 0 -0 0 0 0 0 0 0 0 0 -0 -0 -0 -0
-0 -0 -0 0 1 0 0 0 0 1 1 0 0 0 0 0 0 0 0 0 0 0 0 0 0 0 0 0 0 0 0 0 0 0 0 0 0 0 0 0 0 -0 -0
0 -0 -0 0 0 0 0 0 0 0 1 0 0 0 0 0 0 0 0 0 0 0 0 0 0 0 0 0 0 0 0 -0 -0 0 -0 -0 0 0 0 0 0 0 0
0 0 0 1 1 1 0 0 0 0 1 1 0 0 0 0 0 0 0 0 0 0 0 0 0 0 0 0 0 0 0 0 0 0 0 -0 -0 -0 -0 0 0 0 -0
Wind_Speed_500mb
35 38 40 39 41 41 41 42 43 47 48 44 41 40 39 40 42 40 36 32 27 29 30 29 28 28 25 22 21 25 27 26 30 34 36 39 41 39 30 27 31 34 33
41 42 37 39 42 40 39 39 42 44 43 40 38 35 35 37 34 32 29 27 28 28 30 32 32 32 32 31 30 32 32 33 34 34 36 39 38 36 33 26 31 34 33
40 40 36 38 39 38 39 42 41 41 36 35 33 32 34 29 28 25 24 26 27 25 28 28 31 31 34 34 33 34 36 35 37 34 30 29 33 32 27 26 30 31 32
33 36 37 37 38 39 40 40 39 37 32 29 30 28 27 25 22 21 20 22 25 23 25 29 28 32 33 32 31 31 33 30 21 25 22 20 24 24 25 26 27 28 28
24 35 39 38 39 39 38 39 35 31 29 28 29 28 27 22 19 19 18 19 21 21 24 27 25 24 28 31 32 29 34 36 34 22 12 15 16 23 25 26 28 28 28
33 34 41 42 40 38 35 33 29 27 27 25 26 25 25 19 18 17 20 20 19 20 23 21 25 22 25 29 32 28 27 29 16 23 7 15 12 16 22 25 25 24 24
42 36 41 39 36 32 30 28 28 28 28 26 24 26 23 16 21 24 25 24 21 19 19 19 16 19 22 30 37 32 28 27 15 18 13 7 2 8 16 22 20 22 22
38 42 40 35 30 28 26 24 25 26 28 26 24 24 19 18 15 22 23 22 20 17 15 14 15 18 19 25 29 28 21 18 16 18 14 12 8 8 9 15 19 22 22
25 39 38 35 32 28 25 26 27 27 25 24 25 20 15 13 17 15 13 22 20 18 14 12 13 13 11 10 10 11 12 12 17 16 16 14 13 13 13 16 19 22 22
31 26 34 33 30 28 27 26 25 22 20 18 16 4 6 16 17 9 21 21 20 17 14 12 12 11 9 8 8 8 10 11 19 26 27 26 17 16 16 21 21 22 23
37 24 26 25 27 28 28 24 23 21 18 19 12 5 9 18 20 16 26 23 21 18 14 13 12 10 9 10 9 9 9 13 15 20 24 27 25 22 16 24 28 27 25
42 36 19 26 24 24 23 24 22 19 17 18 13 10 12 2 16 16 31 23 19 17 15 14 12 9 11 9 10 21 20 20 19 34 27 15 28 23 20 22 36 32 29
53 40 29 23 22 21 16 16 20 19 17 16 13 10 12 9 2 15 24 33 25 21 21 20 23 19 13 13 9 25 22 24 9 31 20 21 21 20 24 22 38 37 33
46 35 40 31 30 29 23 15 15 14 12 15 22 26 26 22 15 9 16 30 33 30 31 29 29 24 24 20 17 22 19 13 19 10 9 22 22 21 22 22 35 36 34
36 44 45 34 35 36 26 16 26 32 21 21 20 22 14 11 18 10 8 14 26 30 30 33 25 28 33 32 27 20 22 17 20 22 15 19 21 16 17 25 33 37 35
41 36 39 40 35 30 25 23 15 20 14 23 22 23 15 15 15 20 21 24 25 25 27 31 33 35 36 35 36 25 21 28 30 18 14 19 19 19 12 18 28 38 40
44 35 42 36 23 21 33 26 23 15 13 23 21 25 22 20 17 22 25 31 33 31 27 29 40 39 40 42 48 32 29 23 21 22 28 19 10 14 15 17 21 23 38
38 39 37 30 20 23 14 14 12 11 13 16 15 13 18 17 19 22 23 23 24 31 32 32 28 34 40 43 40 43 31 31 31 30 32 28 24 22 19 18 19 24 26
39 39 34 26 23 18 16 10 10 12 14 13 16 16 15 18 21 22 21 18 23 26 29 30 24 28 29 30 31 33 33 36 30 30 30 35 31 25 21 24 25 21 22
43 42 35 35 31 27 23 20 15 13 15 15 17 15 15 16 20 25 26 22 20 23 27 24 24 22 23 22 31 37 38 37 33 34 37 41 36 36 31 26 22 20 23
36 45 39 37 33 32 31 29 25 20 15 18 20 24 25 25 26 26 22 21 16 17 22 25 24 23 25 31 34 37 41 45 48 45 36 49 49 40 33 32 33 36 32
40 35 39 32 26 26 24 23 20 15 25 22 24 21 24 25 26 28 26 20 19 20 21 24 36 38 29 29 36 38 43 42 50 46 41 44 49 47 44 42 37 30 24
47 43 36 27 17 15 21 21 22 27 26 28 29 31 26 28 29 26 29 26 21 23 27 27 28 31 30 26 36 31 16 17 14 23 41 50 45 52 52 56 36 37 34
43 40 32 26 22 18 17 19 30 32 34 28 24 26 25 26 30 26 31 33 31 29 29 29 27 29 31 30 32 39 36 27 7 10 12 13 27 40 38 52 42 37 34
36 43 32 30 25 17 17 11 19 28 28 27 26 27 26 26 33 35 36 31 35 33 31 29 32 34 36 32 37 40 37 35 41 41 44 30 29 35 29 52 45 44 50
37 41 35 39 31 23 20 13 11 16 20 23 24 28 28 29 29 34 32 40 36 36 34 32 34 39 44 40 37 41 46 46 36 38 40 43 38 41 40 40 52 38 44
Wind_Direction_500mb
145 127 120 119 123 123 124 124 124 122 120 119 116 119 119 120 120 119 120 119 109 108 119 120 119 118 124 127 124 121 119 118 124 125 122 121 116 108 102 109 119 117 119
141 128 122 124 122 125 126 127 127 128 120 112 108 106 107 115 113 113 115 113 107 111 118 123 128 123 123 126 122 120 123 121 116 115 116 118 116 116 116 116 117 117 114
137 132 128 129 127 130 130 131 131 133 123 112 107 104 101 107 111 109 107 109 111 111 123 125 128 127 123 122 126 124 115 113 104 103 105 113 116 122 121 123 119 116 114
129 134 134 136 133 133 132 131 131 128 123 121 113 107 102 102 102 109 113 117 118 116 120 125 124 124 121 124 125 119 112 103 102 89 90 107 116 121 124 125 119 117 117
152 150 142 139 134 130 128 127 128 129 124 124 123 116 113 113 114 113 115 121 116 121 127 133 125 124 124 129 126 119 111 105 118 114 72 75 118 126 129 127 123 120 120
163 154 143 140 133 132 134 136 136 138 142 139 133 125 121 125 123 127 124 124 120 117 124 138 140 135 134 136 139 131 109 106 118 153 160 97 83 131 132 128 125 128 127
154 155 144 141 139 137 136 138 140 145 152 150 144 136 131 124 138 131 124 126 125 130 123 132 153 146 146 146 148 140 137 136 144 160 182 191 110 139 144 137 140 134 133
154 159 152 150 147 146 148 150 158 159 160 159 150 145 139 113 125 144 137 135 139 139 138 142 150 163 155 154 153 159 165 155 183 151 189 202 199 169 171 152 154 148 145
168 159 157 159 157 155 163 161 161 161 156 152 160 156 177 186 154 119 174 152 149 154 160 173 181 184 193 198 192 201 202 207 192 213 234 231 227 209 195 179 170 158 154
158 172 167 165 165 165 167 169 169 169 165 163 152 144 307 215 193 258 225 179 164 168 176 190 208 209 207 214 216 226 219 211 208 206 204 224 217 209 210 210 188 173 165
160 164 175 178 175 174 170 174 184 181 177 164 160 67 325 230 254 231 199 192 176 178 186 200 218 223 219 220 221 228 250 299 252 232 211 223 218 224 228 230 210 192 182
162 176 160 150 160 161 191 191 196 194 197 188 212 313 307 230 221 224 217 210 192 198 211 225 236 253 262 263 260 291 279 321 286 240 224 219 210 238 247 243 218 205 196
165 175 183 161 171 178 172 201 213 209 217 227 225 322 284 317 322 216 218 216 214 223 240 244 254 259 269 244 297 280 263 256 304 305 232 199 218 240 262 240 216 212 204
171 188 187 171 180 187 192 203 202 228 269 264 255 287 291 282 299 284 225 223 237 248 257 266 256 265 265 250 273 275 284 294 290 307 242 217 228 247 248 231 217 211 208
175 167 175 180 181 184 205 300 287 217 234 258 280 278 306 291 292 247 245 244 246 254 259 255 245 257 254 264 243 241 269 272 279 304 285 236 219 250 248 225 217 215 217
177 176 181 181 188 198 215 248 270 197 214 252 273 270 283 289 289 275 271 268 269 268 269 260 256 258 250 254 253 253 258 251 269 281 303 241 234 241 250 226 218 228 231
181 180 185 200 220 225 237 242 255 247 255 274 285 284 291 292 295 271 269 267 267 275 276 269 256 257 258 255 252 243 258 263 267 278 272 279 280 246 239 248 229 232 233
181 182 194 206 226 232 250 243 246 262 272 290 270 272 283 299 291 280 274 276 268 261 265 271 269 257 256 254 256 245 252 259 257 271 274 274 271 279 247 239 232 230 230
180 183 198 216 222 229 241 261 257 250 261 272 288 279 275 276 281 283 279 286 268 264 256 261 261 254 245 254 241 228 257 259 259 263 277 262 268 268 258 231 242 237 229
188 191 187 197 213 230 244 248 261 276 284 288 306 302 303 294 288 283 281 281 261 260 243 250 247 248 244 227 224 241 255 252 251 248 256 262 268 263 255 253 243 237 243
183 178 185 194 212 218 229 241 255 281 304 294 291 287 287 296 297 300 296 288 278 259 261 248 243 249 249 239 249 253 249 254 256 256 252 260 262 261 252 245 242 253 260
193 190 192 202 216 228 239 255 252 270 271 289 286 300 295 293 298 294 291 289 273 262 263 248 246 251 246 231 241 261 272 273 252 248 252 256 258 261 253 251 252 255 268
204 202 201 206 230 241 240 256 250 267 269 278 289 293 298 290 294 294 300 291 278 258 261 260 250 244 240 230 238 233 248 244 261 258 247 252 252 260 260 250 245 257 256
205 210 213 216 221 229 234 244 243 265 278 288 293 289 292 279 294 288 284 289 286 269 265 259 254 252 249 235 231 232 235 238 258 304 219 194 228 236 252 237 247 254 258
215 207 208 214 207 222 232 243 254 265 278 283 278 292 278 280 293 296 294 281 282 277 271 255 255 251 247 248 248 244 243 244 247 252 267 250 228 236 227 228 243 258 256
211 204 199 190 198 210 222 225 254 282 300 297 296 286 292 286 297 302 294 289 275 278 275 270 250 253 257 255 255 251 246 244 245 242 255 265 273 256 246 238 244 247 255
Wind_Speed_850mb
35 38 40 39 41 41 41 42 43 47 48 44 41 40 39 40 42 40 36 32 27 29 30 29 28 28 25 22 21 25 27 26 30 34 36 39 41 39 30 27 31 34 33
41 42 37 39 42 40 39 39 42 44 43 40 38 35 35 37 34 32 29 27 28 28 30 32 32 32 32 31 30 32 32 33 34 34 36 39 38 36 33 26 31 34 33
40 40 36 38 39 38 39 42 41 41 36 35 33 32 34 29 28 25 24 26 27 25 28 28 31 31 34 34 33 34 36 35 37 34 30 29 33 32 27 26 30 31 32
33 36 37 37 38 39 40 40 39 37 32 29 30 28 27 25 22 21 20 22 25 23 25 29 28 32 33 32 31 31 33 30 21 25 22 20 24 24 25 26 27 28 28
24 35 39 38 39 39 38 39 35 31 29 28 29 28 27 22 19 19 18 19 21 21 24 27 25 24 28 31 32 29 34 36 34 22 12 15 16 23 25 26 28 28 28
33 34 41 42 40 38 35 33 29 27 27 25 26 25 25 19 18 17 20 20 19 20 23 21 25 22 25 29 32 28 27 29 16 23 7 15 12 16 22 25 25 24 24
42 36 41 39 36 32 30 28 28 28 28 26 24 26 23 16 21 24 25 24 21 19 19 19 16 19 22 30 37 32 28 27 15 18 13 7 2 8 16 22 20 22 22
38 42 40 35 30 28 26 24 25 26 28 26 24 24 19 18 15 22 23 22 20 17 15 14 15 18 19 25 29 28 21 18 16 18 14 12 8 8 9 15 19 22 22
25 39 38 35 32 28 25 26 27 27 25 24 25 20 15 13 17 15 13 22 20 18 14 12 13 13 11 10 10 11 12 12 17 16 16 14 13 13 13 16 19 22 22
31 26 34 33 30 28 27 26 25 22 20 18 16 4 6 16 17 9 21 21 20 17 14 12 12 11 9 8 8 8 10 11 19 26 27 26 17 16 16 21 21 22 23
37 24 26 25 27 28 28 24 23 21 18 19 12 5 9 18 20 16 26 23 21 18 14 13 12 10 9 10 9 9 9 13 15 20 24 27 25 22 16 24 28 27 25
42 36 19 26 24 24 23 24 22 19 17 18 13 10 12 2 16 16 31 23 19 17 15 14 12 9 11 9 10 21 20 20 19 34 27 15 28 23 20 22 36 32 29
53 40 29 23 22 21 16 16 20 19 17 16 13 10 12 9 2 15 24 33 25 21 21 20 23 19 13 13 9 25 22 24 9 31 20 21 21 20 24 22 38 37 33
46 35 40 31 30 29 23 15 15 14 12 15 22 26 26 22 15 9 16 30 33 30 31 29 29 24 24 20 17 22 19 13 19 10 9 22 22 21 22 22 35 36 34
36 44 45 34 35 36 26 16 26 32 21 21 20 22 14 11 18 10 8 14 26 30 30 33 25 28 33 32 27 20 22 17 20 22 15 19 21 16 17 25 33 37 35
41 36 39 40 35 30 25 23 15 20 14 23 22 23 15 15 15 20 21 24 25 25 27 31 33 35 36 35 36 25 21 28 30 18 14 19 19 19 12 18 28 38 40
44 35 42 36 23 21 33 26 23 15 13 23 21 25 22 20 17 22 25 31 33 31 27 29 40 39 40 42 48 32 29 23 21 22 28 19 10 14 15 17 21 23 38
38 39 37 30 20 23 14 14 12 11 13 16 15 13 18 17 19 22 23 23 24 31 32 32 28 34 40 43 40 43 31 31 31 30 32 28 24 22 19 18 19 24 26
39 39 34 26 23 18 16 10 10 12 14 13 16 16 15 18 21 22 21 18 23 26 29 30 24 28 29 30 31 33 33 36 30 30 30 35 31 25 21 24 25 21 22
43 42 35 35 31 27 23 20 15 13 15 15 17 15 15 16 20 25 26 22 20 23 27 24 24 22 23 22 31 37 38 37 33 34 37 41 36 36 31 26 22 20 23
36 45 39 37 33 32 31 29 25 20 15 18 20 24 25 25 26 26 22 21 16 17 22 25 24 23 25 31 34 37 41 45 48 45 36 49 49 40 33 32 33 36 32
40 35 39 32 26 26 24 23 20 15 25 22 24 21 24 25 26 28 26 20 19 20 21 24 36 38 29 29 36 38 43 42 50 46 41 44 49 47 44 42 37 30 24
47 43 36 27 17 15 21 21 22 27 26 28 29 31 26 28 29 26 29 26 21 23 27 27 28 31 30 26 36 31 16 17 14 23 41 50 45 52 52 56 36 37 34
43 40 32 26 22 18 17 19 30 32 34 28 24 26 25 26 30 26 31 33 31 29 29 29 27 29 31 30 32 39 36 27 7 10 12 13 27 40 38 52 42 37 34
36 43 32 30 25 17 17 11 19 28 28 27 26 27 26 26 33 35 36 31 35 33 31 29 32 34 36 32 37 40 37 35 41 41 44 30 29 35 29 52 45 44 50
37 41 35 39 31 23 20 13 11 16 20 23 24 28 28 29 29 34 32 40 36 36 34 32 34 39 44 40 37 41 46 46 36 38 40 43 38 41 40 40 52 38 44
Wind_Direction_850mb
145 127 120 119 123 123 124 124 124 122 120 119 116 119 119 120 120 119 120 119 109 108 119 120 119 118 124 127 124 121 119 118 124 125 122 121 116 108 102 109 119 117 119
141 128 122 124 122 125 126 127 127 128 120 112 108 106 107 115 113 113 115 113 107 111 118 123 128 123 123 126 122 120 123 121 116 115 116 118 116 116 116 116 117 117 114
137 132 128 129 127 130 130 131 131 133 123 112 107 104 101 107 111 109 107 109 111 111 123 125 128 127 123 122 126 124 115 113 104 103 105 113 116 122 121 123 119 116 114
129 134 134 136 133 133 132 131 131 128 123 121 113 107 102 102 102 109 113 117 118 116 120 125 124 124 121 124 125 119 112 103 102 89 90 107 116 121 124 125 119 117 117
152 150 142 139 134 130 128 127 128 129 124 124 123 116 113 113 114 113 115 121 116 121 127 133 125 124 124 129 126 119 111 105 118 114 72 75 118 126 129 127 123 120 120
163 154 143 140 133 132 134 136 136 138 142 139 133 125 121 125 123 127 124 124 120 117 124 138 140 135 134 136 139 131 109 106 118 153 160 97 83 131 132 128 125 128 127
154 155 144 141 139 137 136 138 140 145 152 150 144 136 131 124 138 131 124 126 125 130 123 132 153 146 146 146 148 140 137 136 144 160 182 191 110 139 144 137 140 134 133
154 159 152 150 147 146 148 150 158 159 160 159 150 145 139 113 125 144 137 135 139 139 138 142 150 163 155 154 153 159 165 155 183 151 189 202 199 169 171 152 154 148 145
168 159 157 159 157 155 163 161 161 161 156 152 160 156 177 186 154 119 174 152 149 154 160 173 181 184 193 198 192 201 202 207 192 213 234 231 227 209 195 179 170 158 154
158 172 167 165 165 165 167 169 169 169 165 163 152 144 307 215 193 258 225 179 164 168 176 190 208 209 207 214 216 226 219 211 208 206 204 224 217 209 210 210 188 173 165
160 164 175 178 175 174 170 174 184 181 177 164 160 67 325 230 254 231 199 192 176 178 186 200 218 223 219 220 221 228 250 299 252 232 211 223 218 224 228 230 210 192 182
162 176 160 150 160 161 191 191 196 194 197 188 212 313 307 230 221 224 217 210 192 198 211 225 236 253 262 263 260 291 279 321 286 240 224 219 210 238 247 243 218 205 196
165 175 183 161 171 178 172 201 213 209 217 227 225 322 284 317 322 216 218 216 214 223 240 244 254 259 269 244 297 280 263 256 304 305 232 199 218 240 262 240 216 212 204
171 188 187 171 180 187 192 203 202 228 269 264 255 287 291 282 299 284 225 223 237 248 257 266 256 265 265 250 273 275 284 294 290 307 242 217 228 247 248 231 217 211 208
175 167 175 180 181 184 205 300 287 217 234 258 280 278 306 291 292 247 245 244 246 254 259 255 245 257 254 264 243 241 269 272 279 304 285 236 219 250 248 225 217 215 217
177 176 181 181 188 198 215 248 270 197 214 252 273 270 283 289 289 275 271 268 269 268 269 260 256 258 250 254 253 253 258 251 269 281 303 241 234 241 250 226 218 228 231
181 180 185 200 220 225 237 242 255 247 255 274 285 284 291 292 295 271 269 267 267 275 276 269 256 257 258 255 252 243 258 263 267 278 272 279 280 246 239 248 229 232 233
181 182 194 206 226 232 250 243 246 262 272 290 270 272 283 299 291 280 274 276 268 261 265 271 269 257 256 254 256 245 252 259 257 271 274 274 271 279 247 239 232 230 230
180 183 198 216 222 229 241 261 257 250 261 272 288 279 275 276 281 283 279 286 268 264 256 261 261 254 245 254 241 228 257 259 259 263 277 262 268 268 258 231 242 237 229
188 191 187 197 213 230 244 248 261 276 284 288 306 302 303 294 288 283 281 281 261 260 243 250 247 248 244 227 224 241 255 252 251 248 256 262 268 263 255 253 243 237 243
183 178 185 194 212 218 229 241 255 281 304 294 291 287 287 296 297 300 296 288 278 259 261 248 243 249 249 239 249 253 249 254 256 256 252 260 262 261 252 245 242 253 260
193 190 192 202 216 228 239 255 252 270 271 289 286 300 295 293 298 294 291 289 273 262 263 248 246 251 246 231 241 261 272 273 252 248 252 256 258 261 253 251 252 255 268
204 202 201 206 230 241 240 256 250 267 269 278 289 293 298 290 294 294 300 291 278 258 261 260 250 244 240 230 238 233 248 244 261 258 247 252 252 260 260 250 245 257 256
205 210 213 216 221 229 234 244 243 265 278 288 293 289 292 279 294 288 284 289 286 269 265 259 254 252 249 235 231 232 235 238 258 304 219 194 228 236 252 237 247 254 258
215 207 208 214 207 222 232 243 254 265 278 283 278 292 278 280 293 296 294 281 282 277 271 255 255 251 247 248 248 244 243 244 247 252 267 250 228 236 227 228 243 258 256
211 204 199 190 198 210 222 225 254 282 300 297 296 286 292 286 297 302 294 289 275 278 275 270 250 253 257 255 255 251 246 244 245 242 255 265 273 256 246 238 244 247 255